CAPE
0 0 0 0 0 0 0 0 0 0 0 0 0 0 0 0 0 0 51 76 0 0 0 0 0 33 67 10 9 0 0 0 3 2 4 6 6 0 0 0 5 13 1 1 1 2 2 0 0
0 0 0 0 0 0 0 0 0 0 0 0 0 0 0 0 0 63 83 28 0 0 0 0 0 2 16 16 9 16 1 0 2 7 3 5 4 3 2 2 7 5 36 11 1 0 0 0 0
0 0 0 0 0 0 0 0 0 0 0 0 0 0 0 0 1 20 53 7 0 0 0 0 0 1 22 1 0 0 0 0 0 3 0 1 3 4 2 1 4 5 2 30 4 0 0 0 0
0 0 0 0 0 0 0 0 0 0 0 0 0 0 0 0 0 42 26 0 0 0 0 0 0 0 0 0 0 0 0 0 0 0 0 0 2 1 0 1 1 0 0 0 3 0 0 0 0
0 0 0 0 0 0 0 0 0 0 0 0 0 0 0 0 6 36 2 0 0 0 0 0 0 0 0 0 0 5 4 7 2 1 0 0 0 0 0 0 0 2 1 0 2 0 0 0 0
0 0 0 0 0 0 0 0 0 0 0 0 0 0 0 0 19 14 0 0 0 0 0 0 0 0 0 0 0 0 0 5 1 0 0 0 0 0 0 0 0 0 0 0 1 0 0 0 0
0 0 0 0 0 0 0 0 0 0 0 0 0 0 0 0 19 22 6 0 0 0 0 0 0 0 0 0 0 0 0 6 1 2 0 0 0 0 0 0 0 0 0 0 0 1 0 0 0
0 0 0 0 0 0 0 0 0 0 0 0 0 0 0 0 0 10 14 3 0 1 0 0 0 0 0 0 0 0 0 0 0 0 0 0 0 0 0 0 0 0 0 0 0 0 0 0 0
0 0 0 0 0 0 0 0 0 0 0 0 0 0 0 0 0 0 0 1 0 2 0 0 0 0 0 0 0 0 0 0 0 0 0 0 0 0 0 0 0 0 0 0 0 0 0 0 0
0 0 0 0 0 0 0 0 0 0 0 0 0 0 0 0 0 0 0 0 0 0 0 0 0 0 0 0 0 0 0 0 0 0 0 0 0 0 0 0 0 0 0 0 0 0 0 0 0
0 0 0 0 0 0 0 0 0 0 0 0 0 0 0 0 0 0 0 0 0 0 0 0 1 2 0 0 0 0 0 0 0 0 0 0 0 0 0 0 0 0 0 0 0 0 0 0 0
0 0 0 0 0 0 0 0 0 0 0 0 0 0 0 0 0 0 0 0 0 0 0 0 0 0 0 0 0 0 0 0 0 0 0 0 0 0 0 0 0 0 0 0 0 0 0 0 0
0 0 0 0 0 0 0 0 0 0 0 0 0 0 0 0 0 0 0 0 0 0 0 0 0 0 0 0 0 0 0 0 0 0 0 0 0 0 0 0 0 0 0 0 0 0 0 0 0
0 0 0 0 0 0 0 0 0 0 0 0 0 0 0 0 0 0 0 0 0 0 0 0 0 0 0 0 0 0 0 0 0 0 0 0 0 0 0 0 0 0 0 0 0 0 0 0 0
0 0 0 0 0 0 0 0 0 0 0 0 0 0 0 0 0 0 0 0 0 0 0 0 0 0 0 0 0 0 0 0 0 0 0 0 0 0 0 0 0 0 0 0 0 0 0 0 0
0 0 0 0 0 0 0 0 0 0 0 0 0 0 0 0 0 0 0 0 0 0 0 0 0 0 0 0 0 0 0 0 0 0 0 0 0 0 0 0 0 0 0 0 0 0 0 0 0
0 0 0 0 0 0 0 0 0 0 0 0 0 0 0 0 0 0 0 0 0 0 0 0 0 0 0 0 0 0 0 0 0 0 0 0 0 0 0 0 0 0 0 0 0 0 0 0 0
0 0 0 0 0 0 0 0 0 0 0 0 0 0 0 0 0 0 0 0 0 0 0 0 0 0 0 0 0 0 0 0 0 0 0 0 0 0 0 0 0 0 0 0 2 0 0 0 0
0 0 0 0 0 0 0 0 0 0 0 0 0 0 0 0 0 0 0 0 0 0 0 0 0 0 0 0 0 0 0 0 0 0 0 0 0 0 0 0 0 0 1 1 0 0 2 1 3
0 0 0 0 0 0 0 0 0 0 0 0 0 0 0 0 0 0 0 0 0 0 0 0 0 0 0 0 0 0 0 0 0 0 0 0 0 0 4 2 0 2 2 1 1 2 2 2 1
0 0 0 0 0 0 0 0 0 0 0 0 0 0 0 0 0 0 0 0 0 0 0 0 0 0 0 0 0 0 0 0 0 0 0 0 0 0 0 0 1 1 0 3 1 2 3 6 0
0 0 0 0 0 0 0 0 0 0 0 0 0 0 0 0 0 0 0 0 0 0 0 0 0 0 0 0 0 0 0 0 0 0 0 0 0 0 8 0 16 9 3 5 1 3 2 6 4
0 0 0 0 0 0 0 0 0 0 0 0 0 0 0 0 0 0 0 0 0 0 0 0 0 0 0 0 0 0 0 0 0 0 0 0 0 0 26 29 26 37 18 0 2 2 3 4 3
0 0 0 0 0 0 0 0 0 0 0 0 0 0 0 0 0 0 0 0 0 0 0 0 0 0 0 0 0 0 0 0 0 0 0 0 0 0 0 1 2 6 2 3 3 4 6 6 6
0 0 0 0 0 0 0 0 0 0 0 0 0 0 0 0 0 0 0 0 0 0 0 0 0 0 0 0 0 0 0 0 0 0 0 0 0 0 0 0 0 0 0 0 0 0 1 4 5
0 0 0 0 0 0 0 0 0 0 0 0 0 0 0 0 0 0 0 0 0 0 0 0 0 0 0 0 0 0 0 0 0 0 0 0 0 0 0 0 0 0 0 0 0 0 0 0 0
0 0 0 0 0 0 0 0 0 0 0 0 0 0 0 0 0 0 0 0 0 0 0 0 0 0 0 0 0 0 0 0 0 0 0 0 0 0 0 0 0 0 0 0 0 0 0 0 0
0 0 0 0 0 0 0 0 0 0 0 0 0 0 0 0 0 0 0 0 0 0 0 0 0 0 0 0 0 0 0 0 0 0 0 0 0 0 0 0 0 0 0 0 0 0 0 0 0
0 0 0 0 0 0 0 0 0 0 0 0 0 0 0 0 0 0 0 0 0 0 0 0 0 0 0 0 0 0 0 0 0 0 0 0 0 0 0 0 0 0 0 0 0 0 0 0 0
0 0 0 0 0 0 0 0 0 0 0 0 0 0 0 0 0 0 0 0 0 0 0 0 0 0 0 0 0 0 0 0 0 0 0 0 0 0 0 0 0 0 0 0 0 0 0 0 0
CIN
0 0 0 0 0 0 0 0 0 0 0 0 0 0 0 0 0 0 -153 -137 0 0 0 0 0 -90 -91 -2 -11 0 0 0 0 0 0 0 0 0 -1 0 -1 -4 -1 0 0 0 0 0 0
0 0 0 0 0 0 0 0 0 0 0 0 0 0 0 0 0 -136 -117 -160 0 0 0 0 0 -195 -160 -208 -3 -3 0 0 0 0 0 0 0 0 0 0 -1 -1 -5 0 0 0 0 0 0
0 0 0 0 0 0 0 0 0 0 0 0 0 0 0 0 -33 -191 -137 -243 0 0 0 0 0 -38 -182 -75 0 0 0 0 0 0 0 0 0 0 0 -1 0 0 -1 0 0 0 0 0 0
0 0 0 0 0 0 0 0 0 0 0 0 0 0 0 0 0 -211 -190 -19 0 0 0 0 0 0 -6 0 0 0 0 0 0 0 0 0 0 0 0 0 0 0 0 0 0 0 0 0 0
0 0 0 0 0 0 0 0 0 0 0 0 0 0 0 0 -94 -225 -257 0 0 0 0 0 0 0 0 0 0 -6 -9 -8 -9 -3 0 0 0 0 0 0 0 0 -1 0 0 0 0 0 0
0 0 0 0 0 0 0 0 0 0 0 0 0 0 0 0 -261 -297 -59 0 0 0 0 0 0 0 0 0 0 0 0 -8 -2 0 0 0 0 0 0 0 0 0 0 0 -1 0 0 0 0
0 0 0 0 0 0 0 0 0 0 0 0 0 0 0 0 -242 -247 -316 0 0 0 0 0 0 0 0 0 0 0 0 -5 -4 -13 0 0 0 0 0 0 0 0 0 0 0 -1 0 0 0
0 0 0 0 0 0 0 0 0 0 0 0 0 0 0 0 0 -278 -281 -19 0 -14 0 0 0 0 0 0 0 0 0 0 0 0 0 0 0 0 0 0 0 0 0 0 0 0 0 0 0
0 0 0 0 0 0 0 0 0 0 0 0 0 0 0 0 0 0 -9 -23 -2 -11 0 0 0 0 0 0 0 0 0 0 0 0 0 0 0 0 0 0 0 0 0 0 0 0 0 0 0
0 0 0 0 0 0 0 0 0 0 0 0 0 0 0 0 0 0 0 0 0 0 -2 0 0 0 0 0 0 0 0 0 0 0 0 0 0 0 0 0 0 0 0 0 0 0 0 0 0
0 0 0 0 0 0 0 0 0 0 0 0 0 0 0 0 0 0 0 0 0 0 0 -2 -2 -5 0 0 0 0 0 0 0 0 0 0 0 0 0 0 0 0 0 0 0 0 0 0 0
0 0 0 0 0 0 0 0 0 0 0 0 0 0 0 0 0 0 0 0 0 0 0 0 0 0 0 0 0 0 0 0 0 0 0 0 0 0 0 0 0 0 0 0 0 0 0 0 0
0 0 0 0 0 0 0 0 0 0 0 0 0 0 0 0 0 0 0 0 0 0 0 0 0 0 0 0 0 0 0 0 0 0 0 0 0 0 0 0 0 0 0 0 0 0 0 0 0
0 0 0 0 0 0 0 0 0 0 0 0 0 0 0 0 0 0 0 0 0 0 0 0 0 0 0 0 0 0 0 0 0 0 0 0 0 0 0 0 0 0 0 0 0 0 0 0 0
0 0 0 0 0 0 0 0 0 0 0 0 0 0 0 0 0 0 0 0 0 0 0 0 0 0 0 0 0 0 0 0 0 0 0 0 0 0 0 0 0 0 0 0 0 0 0 0 0
0 0 0 0 0 0 0 0 0 0 0 0 0 0 0 0 0 0 0 0 0 0 0 0 0 0 0 0 0 0 0 0 0 0 0 0 0 0 0 0 0 0 0 0 0 0 0 0 0
0 0 0 0 0 0 0 0 0 0 0 0 0 0 0 0 0 0 0 0 0 0 0 0 0 0 0 0 0 0 0 0 0 0 0 0 0 0 0 0 0 0 0 0 0 0 0 0 0
0 0 0 0 0 0 0 0 0 0 0 0 0 0 0 0 0 0 0 0 0 0 0 0 0 0 0 0 0 0 0 0 0 0 0 0 0 0 0 0 0 0 0 0 -8 -2 0 0 -5
0 0 0 0 0 0 0 0 0 0 0 0 0 0 0 0 0 0 0 0 0 0 0 0 0 0 0 0 0 0 0 0 0 0 0 0 0 0 0 0 0 0 -9 -6 -2 -1 -5 -7 -10
0 0 0 0 0 0 0 0 0 0 0 0 0 0 0 0 0 0 0 0 0 0 0 0 0 0 0 0 0 0 0 0 0 0 0 0 0 0 -13 -18 -2 -9 -5 -7 -6 -7 -6 -8 -11
0 0 0 0 0 0 0 0 0 0 0 0 0 0 0 0 0 0 0 0 0 0 0 0 0 0 0 0 0 0 0 0 0 0 0 0 0 0 0 -10 -10 -7 -12 -42 -9 -9 -6 -1 -8
0 0 0 0 0 0 0 0 0 0 0 0 0 0 0 0 0 0 0 0 0 0 0 0 0 0 0 0 0 0 0 0 0 0 0 0 0 0 -53 0 -62 -59 -68 -96 -5 -7 -5 -7 -3
0 0 0 0 0 0 0 0 0 0 0 0 0 0 0 0 0 0 0 0 0 0 0 0 0 0 0 0 0 0 0 0 0 0 0 0 0 0 -38 -54 -74 -52 -81 -5 -5 -8 -8 -8 -6
0 0 0 0 0 0 0 0 0 0 0 0 0 0 0 0 0 0 0 0 0 0 0 0 0 0 0 0 0 0 0 0 0 0 0 0 0 0 0 -18 -38 -61 -7 -8 -10 -7 -6 -6 -8
0 0 0 0 0 0 0 0 0 0 0 0 0 0 0 0 0 0 0 0 0 0 0 0 0 0 0 0 0 0 0 0 0 0 0 0 0 0 0 0 0 0 0 0 0 0 -2 -4 -3
0 0 0 0 0 0 0 0 0 0 0 0 0 0 0 0 0 0 0 0 0 0 0 0 0 0 0 0 0 0 0 0 0 0 0 0 0 0 0 0 0 0 0 0 0 0 0 0 -1
0 0 0 0 0 0 0 0 0 0 0 0 0 0 0 0 0 0 0 0 0 0 0 0 0 0 0 0 0 0 0 0 0 0 0 0 0 0 0 0 0 0 0 0 0 0 0 0 0
0 0 0 0 0 0 0 0 0 0 0 0 0 0 0 0 0 0 0 0 0 0 0 0 0 0 0 0 0 0 0 0 0 0 0 0 0 0 0 0 0 0 0 0 0 0 0 0 0
0 0 0 0 0 0 0 0 0 0 0 0 0 0 0 0 0 0 0 0 0 0 0 0 0 0 0 0 0 0 0 0 0 0 0 0 0 0 0 0 0 0 0 0 0 0 0 0 0
0 0 0 0 0 0 0 0 0 0 0 0 0 0 0 0 0 0 0 0 0 0 0 0 0 0 0 0 0 0 0 0 0 0 0 0 0 0 0 0 0 0 0 0 0 0 0 0 0
Wind_Speed
20 17 15 14 13 14 15 14 16 16 17 14 14 14 13 14 17 21 15 7 3 10 16 13 10 11 13 4 12 14 14 14 17 18 19 20 22 23 24 24 24 25 25 25 25 25 25 25 25
21 17 14 14 14 16 15 15 10 11 15 15 12 14 15 17 14 12 13 9 3 5 12 11 9 8 7 8 8 9 10 10 13 15 18 20 21 21 22 22 23 23 24 23 24 24 24 24 24
21 18 15 15 14 14 14 7 6 10 12 16 16 12 14 16 13 16 5 3 3 6 8 8 5 4 2 6 8 10 13 14 16 17 18 18 18 19 20 20 21 21 21 22 23 23 23 23 23
20 16 16 15 11 11 10 4 6 12 14 14 12 11 12 15 5 13 6 4 2 1 2 1 2 2 2 5 6 8 11 13 15 15 15 16 17 17 17 18 19 19 20 20 21 21 21 21 21
19 17 18 15 13 11 7 5 7 8 12 15 13 15 12 12 4 10 6 3 5 1 2 3 3 3 3 4 6 6 9 13 14 14 14 15 15 15 15 15 16 17 18 18 18 19 19 19 19
19 18 19 18 16 12 11 7 7 7 7 9 8 11 13 4 5 9 8 6 5 7 6 5 6 4 4 4 5 6 8 9 10 11 12 13 13 13 13 13 14 15 15 15 16 16 17 17 17
20 20 21 20 13 14 13 12 8 7 8 12 8 12 11 5 3 6 7 7 3 5 5 4 5 5 6 6 5 6 8 7 8 9 10 11 11 11 11 11 11 12 12 13 13 13 14 15 15
20 20 22 18 16 16 13 13 12 9 11 11 11 13 12 6 4 3 6 5 3 2 3 2 3 4 5 5 4 5 7 7 7 7 8 9 9 10 10 10 10 10 10 11 10 10 11 12 12
19 22 23 21 19 16 12 14 15 12 10 13 13 11 6 8 4 1 2 3 1 1 1 3 2 3 3 4 5 5 5 6 6 7 7 7 8 8 8 8 8 8 8 8 8 8 8 9 9
20 22 22 19 19 13 7 10 12 14 12 13 11 7 5 5 3 3 1 1 0 2 1 2 2 2 3 5 3 3 4 5 5 6 7 7 7 7 6 6 6 6 6 7 7 7 8 7 8
21 24 21 20 17 17 9 13 13 13 17 16 8 3 3 2 2 2 1 2 1 1 3 3 4 4 2 4 4 4 4 4 4 3 4 5 6 6 7 5 5 6 6 7 7 8 8 7 7
26 23 22 22 19 17 14 17 15 15 18 19 7 1 3 4 2 0 1 2 3 4 5 7 5 3 3 3 4 4 5 5 5 4 3 5 5 6 7 7 9 7 6 7 7 8 7 7 7
25 25 22 22 22 20 20 17 18 17 13 13 7 7 6 7 7 8 5 4 4 3 2 4 2 3 4 2 4 5 6 6 5 5 4 3 4 6 9 9 9 9 8 8 9 8 10 10 9
24 26 25 23 24 24 24 23 22 20 16 14 10 11 12 11 9 9 9 8 5 4 3 2 3 3 5 3 4 5 5 5 5 5 6 5 6 8 9 10 10 10 9 9 10 11 11 12 14
26 26 27 27 25 25 24 30 28 24 21 18 17 17 15 14 10 9 8 8 6 6 5 5 4 5 6 7 9 11 12 14 10 9 9 9 9 9 10 10 11 12 12 13 15 14 13 13 15
30 30 33 29 27 26 24 34 29 29 27 26 20 22 22 19 15 11 8 7 7 8 8 8 7 7 8 9 11 13 15 16 18 17 13 13 13 12 11 13 14 14 14 15 15 14 14 16 18
29 34 36 34 26 26 27 33 31 25 25 31 31 24 25 25 19 15 13 11 12 11 11 11 10 10 10 11 13 14 15 15 18 20 20 16 15 16 15 14 15 16 17 17 17 17 18 20 23
34 34 33 33 29 28 31 36 33 30 30 31 30 28 27 28 26 23 19 17 16 15 14 13 13 14 14 14 15 16 16 17 17 17 18 21 19 17 16 16 15 15 17 18 18 21 22 23 26
25 30 32 29 27 30 34 37 38 39 37 36 33 34 34 33 30 25 25 24 22 19 17 15 15 16 17 18 19 20 20 20 18 17 17 18 20 20 18 17 17 17 18 19 21 23 25 28 28
34 33 30 26 26 30 34 41 42 39 38 37 37 36 34 34 36 34 33 33 31 26 23 22 22 22 20 18 20 20 21 22 21 21 20 19 19 20 24 21 20 20 21 23 24 24 28 29 26
34 34 33 34 29 30 35 41 37 33 33 36 39 38 35 36 36 34 32 29 27 26 26 26 25 25 24 22 23 23 24 25 24 24 23 22 20 22 23 24 23 21 22 24 25 25 25 30 28
34 29 30 30 33 40 30 45 36 33 34 31 32 31 31 30 29 29 28 27 27 27 26 26 26 27 26 24 23 22 21 22 23 22 22 23 23 22 23 23 22 21 22 24 26 25 26 26 29
29 23 26 28 32 35 37 41 40 32 34 34 30 27 24 21 22 23 24 24 25 26 26 27 25 24 23 22 21 19 18 19 20 22 22 22 20 18 18 19 19 21 22 25 25 25 24 24 26
19 22 24 28 31 45 39 38 40 35 32 27 24 22 20 19 21 22 22 21 22 23 22 22 22 22 23 22 21 20 18 19 17 18 16 17 18 18 19 20 21 21 21 23 23 23 23 24 24
24 25 35 38 40 46 33 36 41 30 25 23 20 20 21 21 19 19 19 19 20 20 20 20 19 20 19 18 18 17 17 16 16 16 17 17 18 19 19 20 21 21 22 24 25 25 25 25 26
27 27 33 43 43 40 32 41 37 30 28 21 19 20 22 22 17 17 16 17 18 18 19 18 18 18 17 17 16 15 14 14 15 15 15 16 16 18 19 20 20 21 23 24 25 25 26 27 29
28 35 25 32 32 38 36 36 34 26 23 21 22 22 21 19 17 16 16 17 18 18 18 18 17 17 17 16 15 15 15 14 14 14 15 15 16 17 18 19 20 21 22 24 25 26 29 29 30
25 23 33 32 40 45 39 38 36 27 23 21 19 18 17 16 16 15 16 16 17 17 18 17 17 17 17 17 17 16 15 14 14 14 15 15 16 17 18 19 20 21 23 25 26 28 28 30 31
27 29 29 28 31 37 39 34 28 25 18 16 15 16 15 15 16 16 17 17 18 18 19 19 20 19 19 18 17 16 16 15 14 14 15 16 16 17 19 21 22 23 25 26 27 28 30 31 31
30 29 28 32 34 34 34 34 22 15 14 13 15 13 14 16 17 18 18 20 21 22 22 21 20 19 19 18 17 17 16 15 15 15 16 17 18 19 20 22 23 24 25 26 27 29 30 31 32
Wind_Direction
283 273 252 258 248 233 213 217 207 203 198 203 206 206 202 207 202 188 206 211 149 206 206 212 220 221 218 56 69 66 57 51 55 55 58 61 65 67 65 60 62 67 66 59 55 55 54 54 51
281 268 276 258 252 234 227 225 240 235 213 217 221 214 220 213 224 220 212 209 154 200 217 222 230 236 241 76 60 51 38 32 40 50 59 68 72 71 65 62 57 57 52 56 53 54 54 56 55
280 254 266 261 264 249 242 271 263 244 239 221 225 246 233 227 233 211 203 176 180 214 228 234 246 256 320 65 63 61 61 61 69 75 72 70 70 69 65 65 60 59 50 50 53 54 54 54 52
279 270 267 265 275 276 263 308 297 258 241 241 251 258 258 241 249 226 107 111 112 133 253 44 297 20 0 47 45 44 57 65 68 69 70 66 69 67 62 64 62 56 55 54 53 54 52 50 49
283 268 263 267 272 276 283 332 300 274 252 235 255 246 258 258 38 97 103 101 96 79 57 43 19 334 346 335 327 25 39 78 76 72 70 69 63 65 64 64 57 54 51 52 50 49 52 51 53
269 272 260 262 264 269 269 291 291 295 287 272 284 271 260 356 71 104 100 91 85 86 76 63 64 50 38 21 21 26 19 57 61 62 68 69 68 65 62 64 55 49 51 50 49 48 48 49 52
267 266 259 274 265 269 262 263 284 304 295 273 293 275 267 289 87 102 98 95 73 80 75 68 55 55 64 67 58 27 347 47 54 54 61 59 61 63 61 62 61 54 52 48 48 52 48 41 41
272 268 260 265 263 270 264 262 275 282 279 282 293 284 270 262 101 104 103 97 83 7 4 38 355 340 338 348 15 12 1 14 40 45 50 51 52 52 45 40 46 50 51 52 57 57 48 43 39
275 260 255 264 266 268 267 263 269 282 287 280 289 294 319 97 92 113 289 288 350 323 335 329 341 360 352 349 354 357 360 8 18 25 30 32 32 34 35 37 45 47 49 57 56 58 59 45 41
264 258 259 277 281 269 268 275 269 275 280 282 296 321 49 68 85 108 135 134 198 290 299 318 323 337 337 330 350 360 356 355 357 1 2 7 13 22 35 48 59 57 55 50 42 44 40 38 33
264 257 267 277 285 270 270 275 276 279 274 276 289 317 324 18 43 96 305 305 162 313 309 304 311 315 328 328 337 339 341 344 347 351 353 357 3 7 9 22 35 20 23 16 16 17 19 26 26
260 266 268 271 281 276 269 274 278 280 285 279 286 287 298 302 312 221 181 290 296 287 291 299 308 304 305 318 321 332 332 329 331 336 347 345 350 355 353 356 355 359 359 5 8 4 6 4 6
263 265 272 270 276 277 273 276 276 281 291 299 291 279 289 295 299 295 301 290 296 287 274 188 236 296 296 281 316 316 321 325 329 334 335 339 338 335 337 339 340 343 346 346 349 349 350 348 346
267 266 268 273 272 274 270 272 276 279 284 290 291 284 285 291 293 294 291 291 284 292 287 258 236 242 301 285 294 307 318 319 321 325 329 318 321 323 324 327 330 332 336 336 336 337 338 338 337
265 265 265 266 271 272 274 267 266 272 280 282 282 282 286 288 291 288 286 284 277 282 289 278 273 280 265 287 299 306 309 310 312 309 313 313 309 311 317 317 320 320 324 324 326 328 331 331 331
261 264 260 267 267 270 271 264 269 270 271 272 282 281 282 287 288 286 284 278 272 282 280 282 277 272 278 285 289 292 299 305 308 307 302 303 306 304 305 311 313 315 318 319 321 323 324 325 325
260 259 259 264 265 268 267 268 274 280 274 271 272 281 282 284 290 292 292 283 285 279 279 278 273 271 273 283 292 296 297 294 296 301 304 299 298 301 301 302 306 310 312 314 316 318 319 320 320
258 259 262 261 264 267 266 267 270 274 276 275 276 278 282 284 287 288 290 292 290 286 282 277 276 277 277 282 288 293 295 297 299 297 293 302 300 297 298 300 301 305 308 309 311 313 315 317 317
264 263 262 266 269 268 268 270 269 270 273 273 276 277 279 280 284 288 291 294 294 290 286 285 286 283 281 283 285 289 291 293 296 295 298 298 297 302 295 296 298 301 303 306 308 310 311 313 315
261 263 265 271 272 273 273 271 271 273 273 273 274 277 280 282 281 284 287 289 291 290 287 284 285 287 285 278 284 287 293 295 293 295 296 297 300 297 300 297 296 299 303 306 307 308 308 310 315
258 260 263 268 274 279 278 274 276 280 278 277 276 278 281 282 283 285 287 291 295 295 294 292 291 291 288 285 287 287 291 293 296 296 294 294 297 301 297 296 299 299 303 305 308 309 309 308 313
255 265 265 269 271 268 277 269 274 280 281 285 284 285 285 287 290 292 291 290 293 294 295 295 295 295 294 294 289 285 284 287 295 298 300 299 298 298 302 303 293 301 305 307 308 310 310 310 310
260 271 265 269 273 274 272 272 274 281 280 284 290 292 293 297 297 299 299 299 299 299 298 297 298 298 298 296 297 292 291 294 300 304 303 304 304 303 305 310 310 304 305 309 310 311 312 313 312
263 267 273 274 274 267 271 272 275 276 284 287 293 297 299 303 305 306 308 308 306 307 307 306 303 300 299 299 296 296 298 299 303 309 309 309 311 314 312 311 312 314 314 314 315 315 316 315 316
260 259 264 265 265 266 278 272 274 281 288 290 291 294 300 305 308 312 313 314 314 314 315 316 314 311 312 312 308 302 301 304 306 308 309 310 311 312 314 316 316 316 318 318 319 319 319 318 317
255 258 261 262 263 269 276 270 280 285 287 289 290 297 302 304 306 309 316 321 323 323 323 323 323 321 321 317 315 316 315 312 313 315 316 316 316 315 317 318 320 320 321 322 322 322 322 322 320
258 255 271 271 275 273 273 277 283 284 289 291 292 295 299 303 305 310 313 316 318 321 322 323 323 323 323 323 321 320 319 318 316 320 321 322 323 323 324 326 326 326 327 327 326 324 322 323 321
265 260 261 267 267 268 273 275 275 283 280 287 291 298 304 309 311 320 322 324 326 325 323 322 321 319 319 317 317 317 318 321 322 324 322 325 328 329 329 330 330 331 330 329 328 326 327 325 324
260 260 263 267 268 270 272 276 288 280 282 285 290 303 307 313 317 320 326 328 327 325 322 317 313 311 310 311 311 312 313 316 321 322 325 326 331 332 330 329 329 330 329 329 328 327 326 326 325
259 263 258 264 268 269 274 276 294 292 287 289 290 301 309 313 315 319 323 321 320 317 315 314 313 311 309 308 307 307 310 314 316 319 323 326 327 329 329 330 329 329 329 330 330 328 327 326 325